Volver al catálogo

COSMOS 2251 DEB

ActivoLEO
NORAD 33832·DEBRIS·🇷🇺 Russia

Lanzado Jun 16, 1993 desde Plesetsk Cosmodrome

Loading…

Próximos Pases (próximas 24 horas)

TLE

ActualizadoSource: Space-Track

Época: Sep 14, 2026, 10:16 UTC

1 33832U 93036BZ  26257.42792400  .00003841  00000-0  74026-3 0  9998
2 33832  74.0549  42.4247 0022970   5.6563  22.4399 14.63712960924551

Sigue COSMOS 2251 DEB en tiempo real con AllMySat

Download on the App Store